Location: Unspecified
(0.0000°N, 0.0000°E)
Time: 21:23:03
(UTC+00:00)

Cosmos 1602 Rocket - Visible Passes

Search period start: 21 February 2024 00:00
Search period end: 02 March 2024 00:00
Orbit: 602 x 629 km, 82.5° (Epoch: 20 February)

Date Brightness Start Highest point End Pass type
(mag) Time Alt. Az. Time Alt. Az. Time Alt. Az.
21 Feb 6.6 05:32:59 10° NE 05:35:59 18° E 05:38:59 10° SE visible
21 Feb 7.1 19:20:19 10° WSW 19:21:32 11° W 19:22:46 10° WNW visible
25 Feb 6.6 05:00:17 10° NE 05:03:05 17° E 05:05:53 10° SE visible
25 Feb 7.1 18:46:55 10° WSW 18:48:38 12° W 18:50:21 10° WNW visible
26 Feb 5.2 05:15:15 10° NNE 05:19:14 36° E 05:23:13 10° SSE visible
27 Feb 3.6 05:31:03 10° N 05:35:22 86° E 05:39:42 10° S visible
29 Feb 6.5 04:27:34 10° NE 04:30:09 16° E 04:32:45 10° ESE visible
01 Mar 5.2 04:42:24 10° NNE 04:46:18 34° E 04:50:12 10° SSE visible
